Location: Newark
(3.0500°N, 36.0167°E)
Time: 11:09:30
(UTC+00:00)

A-11 Canister half - Pass Details

Date: 31 August 2019
Orbit: 1527 x 1682 km, 47.3° (Epoch: 17 September)

Event Time Altitude Azimuth Distance (km) Brightness Sun altitude
Rises 05:14:00 0° 238° (WSW) 4,699 11.0 24.6°
Reaches altitude 10° 05:17:16 10° 245° (WSW) 3,730 10.6 25.4°
Maximum altitude 05:25:54 40° 312° (NW) 2,181 9.8 27.5°
Drops below altitude 10° 05:34:49 10° 18° (NNE) 3,833 11.5 29.7°
Sets 05:38:17 0° 26° (NNE) 4,841 12.0 30.6°
